"Time","Temp","Dewpoint","Humidity","Pressure","Direction","Speed","Gust","Precip","PrecipRate"
"00:04:59","75.8","73.3","92","29.83","5","0","0","0.00","0.00"
"00:09:59","75.7","73.2","92","29.83","5","0","0","0.00","0.00"
"00:14:58","75.7","73.2","92","29.83","5","0","0","0.00","0.00"
"00:19:56","75.7","73.2","92","29.82","5","0","0","0.00","0.00"
"00:24:57","75.6","73.1","92","29.82","5","0","0","0.00","0.00"
"00:29:58","75.5","73","92","29.82","5","0","0","0.00","0.00"
"00:34:59","75.4","72.9","92","29.82","5","0","0","0.00","0.00"
"00:39:58","75.2","72.7","92","29.82","5","0","0","0.00","0.00"
"00:44:59","75.1","72.8","92.8","29.83","5","0","0","0.00","0.00"
"00:49:56","75","72.8","93","29.83","5","0","0","0.00","0.00"
"00:54:59","75","73","93.5","29.83","5","0","0","0.00","0.00"
"00:59:56","74.9","72.7","93","29.83","5","0","0","0.00","0.00"
"01:04:56","74.7","72.5","93","29.83","5","0","0","0.00","0.00"
"01:09:59","74.6","72.4","93","29.83","5","0","0","0.00","0.00"
"01:14:57","74.4","72.6","94","29.83","5","0","0","0.00","0.00"
"01:19:59","74.3","72.5","94","29.83","5","0","0","0.00","0.00"
"01:24:56","74.2","72.4","94","29.83","5","0","0","0.00","0.00"
"01:29:57","74.1","72.3","94","29.83","5","0","0","0.00","0.00"
"01:34:58","74.1","72.3","94","29.83","5","0","0","0.00","0.00"
"01:39:56","74.1","72.3","94","29.83","5","0","0","0.00","0.00"
"01:44:57","74","72.5","95","29.83","5","0","0","0.00","0.00"
"01:49:59","74","72.5","95","29.83","5","0","0","0.00","0.00"
"01:54:56","73.9","72.4","95","29.83","5","0","0","0.00","0.00"
"01:59:58","73.8","72.3","95","29.83","5","0","0","0.00","0.00"
"02:04:58","73.7","72.2","95","29.83","5","0","0","0.00","0.00"
"02:09:57","73.6","72.1","95","29.83","5","0","0","0.00","0.00"
"02:14:59","73.5","72","95","29.83","5","0","0","0.00","0.00"
"02:19:56","73.4","71.9","95","29.83","5","0","0","0.00","0.00"
"02:24:57","73.5","72","95","29.83","5","0","0","0.00","0.00"
"02:29:58","73.5","72","95","29.83","5","0","0","0.00","0.00"
"02:34:55","73.4","71.9","95","29.82","5","0","0","0.00","0.00"
"02:39:58","73.3","71.8","95","29.82","5","0","0","0.00","0.00"
"02:44:59","73.2","71.7","95","29.82","5","0","0","0.00","0.00"
"02:49:56","73.1","71.6","95","29.82","5","0","0","0.00","0.00"
"02:54:58","73","71.5","95","29.82","5","0","0","0.00","0.00"
"02:59:59","72.9","71.4","95","29.82","5","0","0","0.00","0.00"
"03:04:57","72.8","71.3","95","29.82","5","0","0","0.00","0.00"
"03:09:56","72.7","71.2","95","29.82","5","0","0","0.00","0.00"
"03:14:58","72.6","71.1","95","29.82","5","0","0","0.00","0.00"
"03:19:56","72.5","71","95","29.82","5","0","0","0.00","0.00"
"03:24:57","72.5","71","95","29.82","5","0","0","0.00","0.00"
"03:29:58","72.4","70.9","95","29.82","5","0","0","0.00","0.00"
"03:34:59","72.4","70.9","95","29.82","5","0","0","0.00","0.00"
"03:39:58","72.3","70.8","95","29.82","5","0","0","0.00","0.00"
"03:44:59","72.2","70.7","95","29.82","5","0","0","0.00","0.00"
"03:49:56","72.2","70.7","95","29.81","5","0","0","0.00","0.00"
"03:54:59","72.1","70.6","95","29.81","5","0","0","0.00","0.00"
"03:59:58","72","70.5","95","29.82","5","0","0","0.00","0.00"
"04:04:59","72.1","70.6","95","29.82","5","0","0","0.00","0.00"
"04:09:58","72.2","70.7","95","29.82","5","0","0","0.00","0.00"
"04:14:57","72.5","70.7","94","29.82","5","0","0","0.00","0.00"
"04:19:59","72.8","70.9","93.6","29.82","9","0","2.4","0.00","0.00"
"04:24:58","73.1","70.9","92.9","29.82","298","1.3","6","0.00","0.00"
"04:29:57","73.4","70.9","92","29.82","345","1.2","4.8","0.00","0.00"
"04:34:58","73.8","71.1","91.3","29.82","358","1.4","7.2","0.00","0.00"
"04:39:56","74.1","71.3","91","29.82","5","2","4.8","0.00","0.00"
"04:44:57","74.5","71.4","90","29.82","305","1.7","7.2","0.00","0.00"
"04:49:59","74.6","71.1","89.2","29.82","283","1.3","4.8","0.00","0.00"
"04:54:56","74.6","71.1","89","29.82","328","2.6","6","0.00","0.00"
"04:59:57","74.8","71.3","89","29.82","1","2.2","5.8","0.00","0.00"
"05:04:58","74.9","71.4","89","29.82","6","2.1","7.2","0.00","0.00"
"05:09:57","74.9","71.3","88.5","29.82","335","1.9","4.8","0.00","0.00"
"05:14:59","74.9","71.1","88","29.83","318","2.1","6","0.00","0.00"
"05:19:56","74.8","71.1","88.5","29.83","319","1.4","3.6","0.00","0.00"
"05:24:57","74.7","71.2","89","29.83","319","1.4","6","0.00","0.00"
"05:29:59","74.5","71","89","29.83","328","0.4","3.5","0.00","0.00"
"05:34:56","74.3","70.8","89","29.83","357","1.1","6","0.00","0.00"
"05:39:58","74.2","70.8","89.4","29.83","5","1.4","4.8","0.00","0.00"
"05:44:57","74","70.8","89.7","29.83","5","1.2","6","0.00","0.00"
"05:49:58","73.9","70.8","90","29.83","357","2.1","8.4","0.00","0.00"
"05:54:57","73.9","70.8","90","29.83","2","1.4","3.6","0.00","0.00"
"05:59:57","73.9","70.8","90","29.83","11","1.3","3.6","0.00","0.00"
"06:04:56","73.8","70.7","90","29.82","352","1.7","3.6","0.00","0.00"
"06:09:56","73.7","70.6","90","29.82","353","3.1","4.8","0.00","0.00"
"06:14:59","73.8","70.7","90","29.82","11","0.8","4.6","0.00","0.00"
"06:19:56","73.8","70.7","90","29.82","9","0.6","3.6","0.00","0.00"
"06:24:58","73.7","70.6","90","29.82","347","0.6","3.6","0.00","0.00"
"06:29:59","73.7","70.6","90","29.84","353","0.4","3.6","0.00","0.00"
"06:34:56","73.7","70.6","90.2","29.84","355","1.4","4.8","0.00","0.00"
"06:39:59","73.7","70.6","90","29.84","355","1.1","3.6","0.00","0.00"
"06:44:56","73.6","70.5","90","29.84","355","0.4","2.4","0.00","0.00"
"06:49:57","73.6","70.5","90","29.84","355","0.2","2.3","0.00","0.00"
"06:54:59","73.5","70.4","90","29.84","355","0.3","2.4","0.00","0.00"
"06:59:56","73.4","70.4","90.5","29.84","355","0.4","2.4","0.00","0.00"
"07:04:56","73.3","70.5","90.8","29.84","355","0.3","2.4","0.00","0.00"
"07:09:59","73.3","70.5","91","29.84","355","0.5","2.4","0.00","0.00"
"07:14:56","73.4","70.6","91","29.85","355","0.1","2.3","0.00","0.00"
"07:19:56","73.5","70.7","91","29.85","355","0","0","0.00","0.00"
"07:24:57","73.6","70.6","90.3","29.85","355","0","0","0.00","0.00"
"07:29:57","73.8","70.7","90","29.86","355","0","0","0.00","0.00"
"07:34:57","74.1","71","90","29.86","355","0","0","0.00","0.00"
"07:39:57","74.3","70.9","89.4","29.86","355","0","0","0.00","0.00"
"07:44:57","74.5","71","89","29.86","355","1","3.6","0.00","0.00"
"07:49:57","74.9","71.4","88.8","29.86","357","1.2","6","0.00","0.00"
"07:54:56","75.5","71.5","87.3","29.86","354","2.2","8.4","0.00","0.00"
"07:59:57","76.3","71.7","85.6","29.86","2","2.7","8.4","0.00","0.00"
"08:04:57","77","71.8","83.9","29.86","356","3.5","7.2","0.00","0.00"
"08:09:56","77.6","72","82.9","29.86","350","3.6","12","0.00","0.00"
"08:14:56","78","71.9","81.6","29.86","356","5.5","13.2","0.00","0.00"
"08:19:57","78.5","71.9","80.4","29.86","338","4.7","17.3","0.00","0.00"
"08:24:57","78.6","71.9","80","29.86","337","5","12","0.00","0.00"
"08:29:57","78.7","71.9","79.8","29.86","332","5.6","16.8","0.00","0.00"
"08:34:58","78.9","71.9","79.2","29.86","352","5.1","17.3","0.00","0.00"
"08:39:58","79.2","72.1","79","29.86","347","4.5","15","0.00","0.00"
"08:44:56","79.3","72.2","79","29.87","355","4.2","15","0.00","0.00"
"08:49:58","79.5","72.3","78.8","29.87","330","3.1","8.4","0.00","0.00"
"08:54:56","79.7","72.2","77.9","29.87","354","5.9","13.2","0.00","0.00"
"08:59:58","79.9","72.4","78.1","29.87","331","4.6","13.2","0.00","0.00"
"09:04:56","80.2","72.4","77.2","29.87","330","3.3","8.4","0.00","0.00"
"09:09:56","80.4","72.6","77.2","29.87","302","0.7","4.8","0.00","0.00"
"09:14:59","80.5","72.3","76.3","29.87","330","2.9","7.2","0.00","0.00"
"09:19:57","80.5","72","75.6","29.87","342","4.3","15","0.00","0.00"
"09:24:59","80.5","71.8","75","29.87","331","3.3","8.4","0.00","0.00"
"09:29:57","80.5","71.8","75","29.88","294","3.1","7.2","0.00","0.00"
"09:34:59","81","71.9","74","29.88","326","5.6","19.6","0.00","0.00"
"09:39:59","81.6","71.8","72.3","29.88","338","6.5","13.2","0.00","0.00"
"09:44:57","81.9","71.7","71.2","29.88","323","5.9","15","0.00","0.00"
"09:49:59","82.2","71.9","71.2","29.88","337","4.9","13.2","0.00","0.00"
"09:54:57","82.4","71.6","70.1","29.88","326","5.1","12","0.00","0.00"
"09:59:59","82.6","71.8","70.1","29.88","334","3.6","11.5","0.00","0.00"
"10:04:56","82.8","71.9","69.7","29.88","345","5.1","12","0.00","0.00"
"10:09:57","83","71.8","69.1","29.88","346","3.5","15","0.00","0.00"
"10:14:56","83.2","71.8","68.5","29.88","341","3.3","9.6","0.00","0.00"
"10:19:58","83.6","71.6","67.2","29.88","336","5.7","13.2","0.00","0.00"
"10:24:56","83.8","71.4","66.5","29.88","347","4.6","18","0.00","0.00"
"10:29:59","84","71.4","66","29.88","344","3.3","8.4","0.00","0.00"
"10:34:56","84.1","71.3","65.6","29.88","334","4.4","12","0.00","0.00"
"10:39:56","84.2","71.7","66.3","29.88","316","2.4","6","0.00","0.00"
"10:44:58","84.9","72","65.5","29.88","340","3.5","13.2","0.00","0.00"
"10:49:56","84.9","70.8","62.8","29.88","332","5.1","16.8","0.00","0.00"
"10:54:59","84.2","70.4","63.5","29.88","348","6.1","17.3","0.00","0.00"
"10:59:57","84.6","70.4","62.6","29.88","337","4.8","12","0.00","0.00"
"11:04:59","84.7","69.9","61.3","29.88","318","4.4","13.2","0.00","0.00"
"11:09:59","84.4","70.3","62.7","29.88","336","2.9","15","0.00","0.00"
"11:14:59","84.3","71.2","64.9","29.88","341","3.6","10.8","0.00","0.00"
"11:19:57","85.7","71","61.6","29.88","309","2.1","6.9","0.00","0.00"
"11:24:59","85.8","69.7","58.8","29.88","322","4.6","13.2","0.00","0.00"
"11:29:57","84.7","69.3","60.2","29.88","324","5.4","12","0.00","0.00"
"11:34:59","85.1","70.7","62.2","29.88","326","3.3","12","0.00","0.00"
"11:39:59","86","70.7","60.3","29.88","347","6.2","14.4","0.00","0.00"
"11:44:57","86.8","71.7","61","29.88","337","2","15","0.00","0.00"
"11:49:59","87.2","70.9","58.8","29.87","312","3.9","15","0.00","0.00"
"11:54:57","87.1","71","58.9","29.87","324","3.3","10.8","0.00","0.00"
"11:59:56","87.5","71.5","59.2","29.87","342","5.2","14.4","0.00","0.00"
"12:04:58","87","70.9","58.9","29.87","337","5.9","15","0.00","0.00"
"12:09:58","87.3","71.3","59.1","29.87","341","4.7","16.1","0.00","0.00"
"12:14:59","87.8","71.1","57.8","29.87","339","5.8","15","0.00","0.00"
"12:19:57","87.7","71.3","58.4","29.87","335","2.2","7.2","0.00","0.00"
"12:24:59","87.6","71","57.9","29.87","348","2","8.4","0.00","0.00"
"12:29:57","88.3","71.3","57.4","29.87","339","3.4","10.8","0.00","0.00"
"12:34:59","89","71.4","56.3","29.86","119","3.3","12","0.00","0.00"
"12:39:59","89.2","71.5","56.2","29.86","308","2.2","7.2","0.00","0.00"
"12:44:57","88.8","70.8","55.4","29.86","329","4.6","10.8","0.00","0.00"
"12:49:59","88.2","70.6","56.3","29.86","339","4.4","10.8","0.00","0.00"
"12:54:57","87.4","70","56.3","29.86","340","4.9","17.3","0.00","0.00"
"12:59:56","87.6","70.5","56.9","29.86","345","6.1","12","0.00","0.00"
"13:04:58","88.3","70.2","55.1","29.86","325","4.1","11.5","0.00","0.00"
"13:09:58","88.4","70.8","56","29.86","307","1.9","4.8","0.00","0.00"
"13:14:58","89.3","70.4","54","29.86","305","4","12","0.00","0.00"
"13:19:56","89.6","71","54.5","29.85","322","4","13.2","0.00","0.00"
"13:24:59","89.3","70.6","54.4","29.85","338","1.5","8.4","0.00","0.00"
"13:29:57","89.5","70.9","54.5","29.86","340","2.3","6.9","0.00","0.00"
"13:34:59","90","71.2","54.2","29.86","344","4.1","12","0.00","0.00"
"13:39:58","89.7","71.2","54.7","29.86","279","3.2","8.4","0.00","0.00"
"13:44:57","89.7","71.2","54.6","29.86","260","3.3","7.2","0.00","0.00"
"13:49:59","90.2","71.7","54.8","29.85","281","3.5","8.4","0.00","0.00"
"13:54:57","90.2","71.1","53.8","29.85","3","3.3","10.8","0.00","0.00"
"13:59:56","90.3","71.1","53.4","29.85","247","3.3","7.2","0.00","0.00"
"14:04:57","90.4","70.6","52.5","29.85","275","3","7.2","0.00","0.00"
"14:09:58","90.3","70.3","52.1","29.85","352","2.3","12","0.00","0.00"
"14:14:57","90.2","70.7","52.9","29.85","3","2.8","12","0.00","0.00"
"14:19:56","89.8","70.9","53.8","29.84","339","2","8.4","0.00","0.00"
"14:24:58","89.9","71.2","54.2","29.84","312","1","3.5","0.00","0.00"
"14:29:59","89.8","70.9","54","29.84","311","1.4","3.6","0.00","0.00"
"14:34:57","90.2","71.7","54.6","29.83","329","1.5","6","0.00","0.00"
"14:39:56","91","71.4","52.8","29.83","336","2.8","12","0.00","0.00"
"14:44:59","90.3","70.9","53","29.83","330","3.4","11.5","0.00","0.00"
"14:49:57","90.6","71.8","54.3","29.82","310","1.1","3.6","0.00","0.00"
"14:54:59","91.2","70.6","51","29.82","342","4","8.4","0.00","0.00"
"14:59:58","90.7","70.4","51.5","29.82","343","4.1","13.2","0.00","0.00"
"15:04:59","91.5","70.9","51.1","29.82","333","4.1","10.8","0.00","0.00"
"15:09:56","91.3","70.4","50.6","29.82","335","4.6","13.2","0.00","0.00"
"15:14:56","91.4","71","51.6","29.82","334","2.1","12.7","0.00","0.00"
"15:19:59","91.9","70.1","49.1","29.81","341","3.6","10.8","0.00","0.00"
"15:24:57","91.9","70","49","29.81","315","2.8","6","0.00","0.00"
"15:29:56","92.1","70.5","49.5","29.81","341","4.2","8.4","0.00","0.00"
"15:34:59","91.1","69.5","49.4","29.81","332","3.1","7.2","0.00","0.00"
"15:39:58","90.6","69.8","50.6","29.81","327","3","9.6","0.00","0.00"
"15:44:56","91.2","70","50.1","29.81","329","2.9","10.8","0.00","0.00"
"15:49:59","91.4","69.8","49.5","29.81","342","4.4","12","0.00","0.00"
"15:54:57","91.4","69.6","49","29.81","324","2.5","6.9","0.00","0.00"
"15:59:59","91.9","69.3","47.8","29.81","305","3.2","8.4","0.00","0.00"
"16:04:57","91.9","69.4","48","29.81","336","3.3","10.8","0.00","0.00"
"16:09:57","92","69.3","47.7","29.81","218","2.8","7.2","0.00","0.00"
"16:14:56","92.5","70.2","48.3","29.81","288","1.7","12","0.00","0.00"
"16:19:59","93","69.9","47.2","29.80","337","3.5","11.5","0.00","0.00"
"16:24:57","92.9","70.3","48","29.80","342","3.5","10.8","0.00","0.00"
"16:29:56","92.7","70","47.8","29.80","340","4.5","13.2","0.00","0.00"
"16:34:58","92.6","70.1","48.1","29.80","334","4.3","12","0.00","0.00"
"16:39:56","91.9","69.3","47.8","29.80","346","0.8","3.6","0.00","0.00"
"16:44:58","91.1","69.7","49.6","29.80","346","0.6","3.6","0.00","0.00"
"16:49:57","91.1","70.1","50.3","29.80","337","1.3","8.4","0.00","0.00"
"16:54:59","91.7","69","47.6","29.80","336","4.8","10.8","0.00","0.00"
"16:59:58","91.7","68.8","47.4","29.80","352","4.5","10.8","0.00","0.00"
"17:04:59","91.1","68.2","47.2","29.80","5","2","7.2","0.00","0.00"
"17:09:56","91.2","69.6","49.3","29.80","344","3.4","10.8","0.00","0.00"
"17:14:59","92","69.4","47.9","29.81","304","4","10.8","0.00","0.00"
"17:19:58","91.7","69.1","47.9","29.81","345","4","12","0.00","0.00"
"17:24:56","90.7","68.5","48.3","29.81","342","3.7","8.4","0.00","0.00"
"17:29:58","89.9","68.7","49.8","29.81","350","1.9","6.9","0.00","0.00"
"17:34:57","90.2","68.9","49.8","29.80","350","2.7","8.4","0.00","0.00"
"17:39:57","90.9","69.2","49.2","29.80","347","3.2","7.2","0.00","0.00"
"17:44:59","91.3","68.9","48","29.80","328","3","8.4","0.00","0.00"
"17:49:57","91.5","69.1","48.2","29.80","341","3.9","8.4","0.00","0.00"
"17:54:58","91.5","68.8","47.7","29.80","331","1.8","8.4","0.00","0.00"
"17:59:56","91.2","69.1","48.5","29.80","345","3.2","13.2","0.00","0.00"
"18:04:57","91","68.5","47.9","29.80","347","3.4","11.5","0.00","0.00"
"18:09:58","91","68.6","48.1","29.80","350","2.5","8.4","0.00","0.00"
"18:14:57","90.8","68.8","48.7","29.81","350","1.6","7.2","0.00","0.00"
"18:19:59","90.5","69","49.5","29.81","336","2.6","8.4","0.00","0.00"
"18:24:59","89.9","68.7","49.8","29.81","341","4.1","12","0.00","0.00"
"18:29:56","89.4","68.6","50.5","29.81","353","3.7","10.4","0.00","0.00"
"18:34:56","89","68.6","51.1","29.81","340","1.6","7.2","0.00","0.00"
"18:39:59","88.6","67.9","50.5","29.81","342","2","7.2","0.00","0.00"
"18:44:57","88.3","67.9","51","29.81","345","2.3","16.1","0.00","0.00"
"18:49:56","87.9","67.6","51.2","29.81","356","1.8","7.2","0.00","0.00"
"18:54:57","87.6","67.2","51.2","29.81","351","1.1","4.8","0.00","0.00"
"18:59:56","87.3","67.4","51.7","29.81","334","2.1","7.2","0.00","0.00"
"19:04:57","87","67.2","51.9","29.81","333","1.1","5.8","0.00","0.00"
"19:09:58","86.8","67.1","52","29.81","330","1.7","4.8","0.00","0.00"
"19:14:57","86.6","67.1","52.4","29.81","346","0.9","4.8","0.00","0.00"
"19:19:59","86.4","66.9","52.4","29.81","346","0.5","3.6","0.00","0.00"
"19:24:57","86.1","67","53","29.81","346","0.8","3.6","0.00","0.00"
"19:29:56","85.7","66.9","53.5","29.81","346","0.6","2.4","0.00","0.00"
"19:34:58","85.4","66.9","54","29.81","348","1","4.8","0.00","0.00"
"19:39:58","85.1","66.8","54.4","29.81","355","1.3","4.8","0.00","0.00"
"19:44:57","84.8","66.8","55","29.81","355","0.7","4.8","0.00","0.00"
"19:49:59","84.4","66.8","55.6","29.81","355","0","0","0.00","0.00"
"19:54:58","84.1","66.7","56","29.81","355","0","0","0.00","0.00"
"19:59:56","83.7","66.9","57","29.81","355","0.3","3.6","0.00","0.00"
"20:04:58","83.4","66.8","57.5","29.81","355","0.8","3.6","0.00","0.00"
"20:09:59","83.1","66.9","58.2","29.81","355","0.5","3.6","0.00","0.00"
"20:14:58","82.8","66.9","58.8","29.82","355","0.1","1.2","0.00","0.00"
"20:19:57","82.5","66.7","59.1","29.82","355","0.2","1.2","0.00","0.00"
"20:24:59","82.2","66.9","60","29.82","355","0.5","3.6","0.00","0.00"
"20:29:58","81.9","66.6","60","29.82","355","0.3","2.4","0.00","0.00"
"20:34:57","81.7","66.8","60.8","29.82","355","0.2","2.3","0.00","0.00"
"20:39:56","81.5","66.8","61","29.82","355","0.8","2.4","0.00","0.00"
"20:44:58","81.3","66.8","61.4","29.84","355","0.1","1.2","0.00","0.00"
"20:49:57","81.1","66.8","62","29.84","355","0.1","1.2","0.00","0.00"
"20:54:59","80.8","66.7","62.1","29.84","355","0.4","2.4","0.00","0.00"
"20:59:58","80.6","66.8","63","29.84","355","0.3","2.3","0.00","0.00"
"21:04:59","80.5","66.7","63","29.84","355","0.2","1.2","0.00","0.00"
"21:09:56","80.4","66.6","63","29.84","355","0","0","0.00","0.00"
"21:14:59","80.2","66.6","63.3","29.84","355","0.3","2.4","0.00","0.00"
"21:19:58","80.1","66.8","64","29.84","355","0.6","2.4","0.00","0.00"
"21:24:56","79.9","66.7","64.3","29.84","355","0.7","2.4","0.00","0.00"
"21:29:59","79.6","66.7","64.7","29.85","355","0.4","2.4","0.00","0.00"
"21:34:57","79.5","66.7","65.2","29.85","355","0","1.2","0.00","0.00"
"21:39:57","79.2","66.9","66","29.85","355","0.3","2.4","0.00","0.00"
"21:44:59","78.9","66.6","66","29.86","355","0","2.3","0.00","0.00"
"21:49:56","78.6","66.7","67","29.86","355","0","0","0.00","0.00"
"21:54:57","78.5","66.6","67","29.86","355","0","0","0.00","0.00"
"21:59:58","78.3","66.9","67.9","29.86","355","0.9","2.4","0.00","0.00"
"22:04:58","78.1","66.7","68","29.86","355","0.9","2.4","0.00","0.00"
"22:09:57","78","66.8","68.4","29.86","355","0.6","3.6","0.00","0.00"
"22:14:59","77.9","66.9","69","29.86","355","0.6","2.4","0.00","0.00"
"22:19:56","77.7","66.8","69.2","29.86","355","0.1","2.3","0.00","0.00"
"22:24:56","77.5","66.9","69.8","29.86","355","0.1","1.2","0.00","0.00"
"22:29:57","77.4","66.8","70","29.87","355","0.1","1.2","0.00","0.00"
"22:34:58","77.4","66.8","70.1","29.87","355","0","1.2","0.00","0.00"
"22:39:56","77.3","67.2","71","29.87","355","0.2","1.2","0.00","0.00"
"22:44:56","77.1","67","71","29.87","355","0.2","1.2","0.00","0.00"
"22:49:57","77","67","71.2","29.87","350","0.4","3.6","0.00","0.00"
"22:54:58","76.9","67.2","72","29.87","350","0.5","3.6","0.00","0.00"
"22:59:59","76.9","67.2","72","29.87","350","0.1","1.2","0.00","0.00"
"23:04:59","76.9","67.2","72","29.87","350","0","1.2","0.00","0.00"
"23:09:58","76.8","67.1","72","29.87","350","0.1","1.2","0.00","0.00"
"23:14:59","76.8","67.1","72","29.88","350","0.1","1.2","0.00","0.00"
"23:19:56","76.6","67","72.2","29.88","350","0","1.2","0.00","0.00"
"23:24:57","76.4","67.1","72.8","29.88","350","0.1","1.2","0.00","0.00"
"23:29:58","76.3","67","73","29.88","350","0","1.2","0.00","0.00"
"23:34:58","76.1","66.8","73.2","29.88","350","0","1.2","0.00","0.00"
"23:39:56","75.9","67.1","74.1","29.88","350","0","0","0.00","0.00"
"23:44:57","75.6","67.3","75.4","29.88","350","0.1","1.2","0.00","0.00"
"23:49:58","75.2","67.1","76","29.88","350","0.2","1.2","0.00","0.00"
"23:54:58","74.7","67","76.9","29.88","350","0","0","0.00","0.00"
